CAPE
1919 1135 1745 1949 1750 1904 2210 2215 2449 1955 1870 3045 2481 2287 2150 1655 2363 2689 2864 2274 1116 1207 2455 2338 2445 3012 2145 2142 1805 1914 1524 1527 1172 1672 692 1126 1240 1230 1025 340 172 79 392
1617 1672 1846 1693 1901 2003 1602 2247 2688 2212 2479 2934 3314 2978 2782 2674 2644 872 2261 2149 2226 1150 1944 1405 1870 1278 2310 3116 2406 2405 2375 1307 1052 1466 2040 1936 1773 1721 908 805 404 338 215
1806 1955 1876 1697 2000 1797 1799 1825 2277 2599 3027 2589 2517 2533 2765 2293 2021 2402 2147 2321 1862 2083 1884 1764 1507 1470 2068 2319 2700 2306 2166 1679 702 1703 1088 1287 438 1622 1839 926 686 452 231
863 1682 1686 2077 2418 1799 1957 1680 2135 2104 1880 2180 2517 2503 2099 2713 2467 1604 2018 2085 2286 2068 2156 1944 1001 2292 1784 1936 1631 2044 1735 1656 1746 1296 446 227 1136 1708 1767 629 387 149 67
1298 436 478 717 2043 2204 2098 1507 2318 2422 1991 1841 1486 1722 1599 1186 742 786 1437 1370 1605 1606 2339 2390 1950 1460 661 786 848 1552 1492 1631 1251 1133 936 425 778 1218 553 652 512 289 216
845 820 246 81 231 1160 1036 1330 1121 1317 1201 1915 2424 1665 1693 629 248 218 293 1058 926 1027 1014 1543 1333 656 478 389 199 152 89 1101 1485 1621 728 1402 1034 830 1010 1100 967 293 395
653 522 197 157 226 314 1043 493 680 753 474 745 936 1538 647 455 109 134 178 180 1269 1789 1871 1845 1446 1054 1161 1406 448 221 140 86 71 509 1071 739 1302 573 920 682 944 1282 648
491 199 228 143 150 611 452 513 685 441 263 76 87 259 383 330 95 73 126 133 1181 1631 1486 1264 1729 1419 560 376 618 577 431 99 70 117 102 88 35 5 94 757 1524 748 199
1002 540 431 392 482 434 502 316 303 158 71 54 47 62 12 25 4 17 44 49 379 659 270 334 482 559 601 167 396 200 53 37 28 16 4 1 0 0 0 292 333 520 108
291 285 257 163 286 254 209 184 203 146 51 35 54 42 52 39 24 0 4 9 11 280 239 68 67 209 261 150 196 200 24 16 25 15 4 0 2 31 17 24 48 72 132
191 154 130 106 111 83 80 76 28 6 4 11 8 1 4 3 12 10 2 6 8 64 218 135 82 52 141 119 123 175 113 47 48 80 98 30 14 4 5 38 53 47 47
307 214 140 61 20 23 19 34 0 0 0 0 2 0 0 3 4 3 1 5 20 65 94 118 104 60 48 114 153 109 88 40 16 43 36 11 1 1 2 20 31 42 29
166 84 59 41 25 12 4 10 4 0 3 2 0 1 1 0 2 3 7 10 31 58 105 89 33 59 66 83 100 96 83 12 35 65 29 25 7 14 31 22 27 35 29
124 128 64 51 7 1 0 0 0 0 5 0 0 0 0 0 0 0 0 0 6 8 28 44 68 64 71 65 53 48 58 64 54 27 33 32 8 0 0 0 6 2 0
75 49 21 6 0 0 0 0 0 0 0 0 0 0 0 0 0 0 0 0 0 0 0 0 1 0 0 0 0 0 0 0 0 2 1 2 2 8 3 0 0 0 0
28 14 0 0 0 0 0 0 0 0 0 0 0 0 0 0 0 0 0 0 0 0 0 0 0 0 0 0 0 0 0 0 0 0 0 0 0 0 0 0 0 0 1
9 0 0 1 0 0 0 0 0 0 0 0 0 0 0 0 0 0 0 0 0 0 0 0 0 0 0 0 0 0 0 0 0 0 0 0 0 0 0 0 0 0 0
0 0 0 0 4 12 23 28 0 0 0 0 0 0 0 0 0 0 0 0 3 3 46 62 44 0 0 0 0 0 0 0 0 0 0 0 0 0 0 0 0 0 0
0 0 1 0 0 0 0 0 0 0 0 0 0 0 0 0 0 0 0 0 10 41 24 9 11 1 0 0 0 0 0 0 0 0 0 0 0 0 0 0 0 0 0
0 0 0 0 0 0 0 0 0 0 0 0 0 0 0 0 0 0 0 1 4 2 2 0 0 0 0 0 0 0 0 0 0 0 0 0 0 0 0 0 0 0 0
0 0 0 0 4 4 4 0 0 0 0 0 4 0 0 0 13 17 5 0 0 9 0 12 0 0 0 0 0 0 0 0 0 0 0 0 0 0 0 0 0 0 0
6 8 0 0 0 14 0 8 13 1 1 7 0 0 0 0 0 13 2 2 0 0 0 0 0 0 0 0 0 0 0 0 0 0 0 0 0 0 0 0 0 0 0
2 14 45 13 28 9 11 0 3 29 22 27 20 6 0 0 0 5 25 6 22 10 0 0 0 0 0 0 0 0 0 0 0 0 0 0 0 0 0 0 0 0 0
0 4 27 27 38 13 44 52 41 4 1 1 19 24 10 11 8 21 50 52 32 16 5 0 0 0 0 0 0 0 0 0 0 0 0 0 0 0 0 0 0 0 0
0 1 35 33 25 23 31 48 37 47 40 50 38 37 32 48 63 70 96 113 154 110 30 21 27 13 0 12 27 0 0 0 0 0 0 0 0 0 4 1 0 0 0
44 29 36 38 27 49 70 43 26 26 20 58 53 18 92 115 86 55 19 64 91 111 111 47 28 101 84 17 15 0 0 0 0 0 1 23 27 40 27 25 21 0 20
CIN
-1 -16 -11 -6 -7 -14 -7 -16 -12 -8 -69 -8 -4 -10 -25 -34 -18 -3 -10 -6 -69 -85 -3 -8 -12 -13 -15 -39 -51 -53 -52 -51 -47 -31 -162 -161 -17 -28 -39 -83 -39 -35 -60
-9 -24 -13 -19 -26 -13 -17 -7 -8 -17 -5 -3 -1 -1 -2 -3 -2 -40 -10 -11 -5 -37 -20 -42 -23 -3 -6 -16 -37 -23 -29 -93 -90 -47 -34 -48 -13 -77 -74 -18 -17 -94 -97
-10 -6 -11 -9 -11 -18 -17 -32 -23 -22 -4 -4 -2 -2 -2 -6 -19 -8 -10 -6 -21 -12 -17 -27 -22 -25 -31 -10 -8 -17 -16 -32 -56 -63 -49 -94 -191 -80 -99 -27 -17 -7 -12
-66 -16 -23 -14 -14 -23 -18 -35 -11 -10 -6 -3 -2 -3 -6 -2 -5 -24 -20 -20 -14 -8 -17 -21 -30 -6 -16 -17 -7 -12 -20 -28 -23 -53 -56 -133 -59 -35 -62 -52 -13 -16 -18
-3 -85 -21 -5 -10 -9 -10 -18 -7 -3 -6 -9 -13 -12 -20 -27 -26 -21 -41 -14 -18 -21 -13 -4 -15 -33 -16 -18 -46 -31 -27 -23 -38 -18 -26 -93 -61 -56 -86 -23 -105 -7 -14
-43 -31 -6 -28 0 -22 -26 -13 -25 -16 -30 -3 0 -7 -5 -21 -63 -24 -27 -53 -31 -31 -38 -33 -28 -3 -5 -9 -28 -63 -42 -29 -24 -15 -34 -12 -26 -57 -47 -39 -33 -28 -6
-38 -66 -60 -23 -12 -35 -41 -77 -59 -36 -49 -34 -32 -5 -15 -38 -64 -63 -53 -53 -29 -5 -4 -12 -23 -24 -26 -19 -46 -38 -50 -69 -47 -48 -16 -45 -14 -29 -50 -30 -26 -13 -21
-37 -106 -104 -133 -44 -8 -44 -31 -1 -8 -23 -94 -65 -32 -21 -21 -26 -50 -32 -42 -12 -2 -4 -7 -4 -11 -34 -35 -23 -16 -35 -30 -35 -37 -49 -50 -43 -59 -142 -32 -2 -13 -32
-2 -5 -25 -9 -1 -1 0 -7 -10 -23 -40 -31 -25 -6 -52 -11 -70 -30 -15 -11 -8 -5 -46 -28 -17 -14 -32 -45 -23 -18 -32 -49 -57 -44 -13 -3 0 -13 -78 -22 -24 -5 -1
-9 -3 -1 -32 -18 0 0 0 0 -1 -5 -3 -1 -1 0 -1 -4 0 -4 -4 -37 -7 -31 -59 -108 -52 -53 -50 -20 -6 -53 -13 -11 -9 -26 -3 -6 -13 -2 -28 -9 -24 -2
-55 -50 -38 -29 -17 -5 -15 -12 -28 -29 -61 -8 -24 -18 -41 0 -9 -1 -10 -5 -87 -53 -1 -58 -62 -85 -23 -30 -14 0 -1 -1 0 0 0 -5 -6 0 -2 -6 -1 0 0
-24 -39 -41 -51 -93 -80 -91 -77 0 0 0 0 -13 0 0 -12 0 -3 0 -2 -43 -34 -16 -18 -38 -36 -16 -2 0 -6 -6 -8 -1 -5 -2 -9 -22 -3 -12 -2 -3 -3 -6
-38 -51 -66 -63 -115 -157 -94 -117 -117 -80 0 -56 -5 -4 -5 -10 -48 -53 -47 -35 -13 -10 -1 -1 -7 -4 -5 -1 -10 -1 0 -2 0 0 -2 0 -31 -4 -5 -2 0 0 0
-70 -31 -37 -23 -75 -74 0 0 0 0 -136 0 0 0 0 0 0 0 0 -3 -23 -30 -26 -22 -1 -1 0 -1 -3 -6 0 0 0 -2 -1 -13 -5 -1 0 -1 -7 -4 0
-44 -46 -39 -16 -1 0 0 0 0 0 0 0 0 0 0 0 0 0 0 0 0 0 0 0 -13 -7 0 0 0 -6 0 0 0 -3 -1 -2 -1 -2 -1 0 0 0 0
-70 -78 0 0 0 0 0 0 0 0 0 0 0 0 0 0 0 0 0 0 0 0 0 0 0 0 0 0 0 0 0 0 0 0 0 0 0 0 0 0 0 0 0
-72 0 0 0 0 0 0 0 0 0 0 0 0 0 0 0 0 0 0 0 0 0 0 0 0 0 0 0 0 0 0 0 0 0 0 0 0 0 0 0 0 0 0
0 0 0 0 -4 -3 -1 -3 0 0 0 0 0 0 0 0 0 0 0 0 -4 -7 -3 -3 -10 0 0 0 0 0 0 0 0 0 0 0 0 0 0 0 0 0 0
0 0 -1 0 0 0 0 0 0 0 0 0 0 0 0 0 0 0 0 0 -5 -10 -6 -15 -1 0 0 0 0 0 0 0 0 0 0 0 0 0 0 0 0 0 0
0 0 0 0 0 0 0 0 0 0 0 0 0 0 0 0 0 0 0 -4 -3 -3 -2 0 0 0 0 0 0 0 0 0 0 0 0 0 0 0 0 0 0 0 0
0 0 0 0 -1 -1 -1 0 0 -1 0 0 -4 0 0 0 -9 -7 -7 -1 0 -4 0 -6 0 0 0 0 0 0 0 0 0 0 0 0 0 0 0 0 0 0 0
0 -9 0 0 0 -1 0 0 -1 -1 -1 0 -8 0 0 0 0 -3 -2 -2 0 0 0 0 0 0 0 0 0 0 0 0 0 0 0 0 0 0 0 0 0 0 0
-1 -1 -6 -6 -11 -37 -4 0 -7 -2 -1 -1 -13 -1 0 0 0 -2 -6 -2 -12 -8 0 0 0 0 0 0 0 0 0 0 0 0 0 0 0 0 0 0 0 0 0
0 -2 -16 -33 -11 -13 -43 -25 -1 -3 -1 -1 -5 -26 0 -1 -5 -2 -4 -11 -14 -11 -9 0 0 0 0 0 0 0 0 0 0 0 0 0 0 0 0 0 0 0 0
0 0 -1 -26 -21 -3 -6 -22 -17 -14 -17 -10 -3 -5 -7 -27 -14 -23 -5 -4 -12 -14 -29 -17 -8 -6 0 -17 -4 0 0 0 0 0 0 0 0 -1 -5 -1 0 0 0
-2 -7 -12 -15 -61 -25 -4 -17 0 -22 -17 -6 -22 -46 -17 -7 -11 -40 -3 -3 -15 -23 -21 -37 -13 -2 -15 -19 -26 0 0 0 0 0 -2 -5 -3 -2 -13 -7 -5 0 -3
Wind_Speed
11 13 13 11 10 11 12 9 10 9 14 5 10 11 12 12 10 9 7 9 20 9 8 5 6 7 7 5 6 7 11 12 9 9 11 13 11 10 18 12 13 nan 6
13 14 14 12 13 10 10 7 10 11 13 11 10 11 12 11 11 12 7 6 11 9 6 8 6 10 13 13 11 12 10 16 15 7 9 14 14 18 24 23 11 10 14
9 12 14 13 13 12 13 12 15 15 12 12 14 12 11 11 10 9 10 9 7 8 9 9 10 12 12 14 13 14 14 14 13 13 8 14 8 11 11 19 18 17 16
31 18 22 17 17 16 11 12 15 16 16 17 16 14 13 13 12 10 12 13 12 10 12 17 14 14 14 20 16 14 16 17 17 17 18 15 14 17 17 23 19 13 nan
34 37 31 34 22 18 18 21 19 20 22 17 17 17 16 16 27 23 17 17 14 15 17 17 18 25 27 25 20 19 18 19 20 22 20 18 16 19 18 14 17 19 15
41 44 36 nan 32 20 23 27 21 25 28 28 25 24 29 34 34 31 28 21 20 21 22 16 19 24 29 27 28 30 nan 19 19 20 21 21 21 20 20 20 20 19 18
40 31 36 35 22 21 30 31 29 30 30 32 31 33 37 40 39 39 33 22 19 21 24 22 21 22 25 26 28 31 35 nan nan 20 21 25 25 25 23 25 24 25 22
42 46 47 45 19 29 33 36 34 37 39 nan nan 37 39 35 nan nan 27 19 21 28 29 27 30 28 30 23 31 32 30 nan nan 32 31 nan nan nan nan 28 30 27 29
24 33 41 46 29 20 30 37 39 35 nan nan nan nan nan nan nan nan nan nan 25 27 32 40 29 34 37 29 34 35 nan nan nan nan nan nan nan nan nan 38 33 33 35
21 14 13 17 18 17 23 27 24 29 nan nan nan nan nan nan nan nan nan nan nan 32 31 nan nan 36 36 42 39 40 nan nan nan nan nan nan nan nan nan nan nan nan 39
15 18 21 19 21 nan nan nan nan nan nan nan nan nan nan nan nan nan nan nan nan nan 42 41 nan nan 49 48 43 41 48 nan nan nan nan nan nan nan nan nan nan nan nan
21 22 25 nan nan nan nan nan nan nan nan nan nan nan nan nan nan nan nan nan nan nan nan 41 45 nan nan 56 53 55 nan nan nan nan nan nan nan nan nan nan nan nan nan
26 nan nan nan nan nan nan nan nan nan nan nan nan nan nan nan nan nan nan nan nan nan 25 nan nan nan nan nan 50 nan nan nan nan nan nan nan nan nan nan nan nan nan nan
31 30 nan nan nan nan nan nan nan nan nan nan nan nan nan nan nan nan nan nan nan nan nan nan nan nan nan nan nan nan nan nan nan nan nan nan nan nan nan nan nan nan nan
nan nan nan nan nan nan nan nan nan nan nan nan nan nan nan nan nan nan nan nan nan nan nan nan nan nan nan nan nan nan nan nan nan nan nan nan nan nan nan nan nan nan nan
nan nan nan nan nan nan nan nan nan nan nan nan nan nan nan nan nan nan nan nan nan nan nan nan nan nan nan nan nan nan nan nan nan nan nan nan nan nan nan nan nan nan nan
nan nan nan nan nan nan nan nan nan nan nan nan nan nan nan nan nan nan nan nan nan nan nan nan nan nan nan nan nan nan nan nan nan nan nan nan nan nan nan nan nan nan nan
nan nan nan nan nan nan nan nan nan nan nan nan nan nan nan nan nan nan nan nan nan nan nan nan nan nan nan nan nan nan nan nan nan nan nan nan nan nan nan nan nan nan nan
nan nan nan nan nan nan nan nan nan nan nan nan nan nan nan nan nan nan nan nan nan nan nan nan nan nan nan nan nan nan nan nan nan nan nan nan nan nan nan nan nan nan nan
nan nan nan nan nan nan nan nan nan nan nan nan nan nan nan nan nan nan nan nan nan nan nan nan nan nan nan nan nan nan nan nan nan nan nan nan nan nan nan nan nan nan nan
nan nan nan nan nan nan nan nan nan nan nan nan nan nan nan nan nan nan nan nan nan nan nan nan nan nan nan nan nan nan nan nan nan nan nan nan nan nan nan nan nan nan nan
nan nan nan nan nan nan nan nan nan nan nan nan nan nan nan nan nan nan nan nan nan nan nan nan nan nan nan nan nan nan nan nan nan nan nan nan nan nan nan nan nan nan nan
nan nan nan nan nan nan nan nan nan nan nan nan nan nan nan nan nan nan nan nan nan nan nan nan nan nan nan nan nan nan nan nan nan nan nan nan nan nan nan nan nan nan nan
nan nan nan nan nan nan nan nan nan nan nan nan nan nan nan nan nan nan nan nan nan nan nan nan nan nan nan nan nan nan nan nan nan nan nan nan nan nan nan nan nan nan nan
nan nan nan nan nan nan nan nan nan nan nan nan nan nan nan nan nan nan nan 44 46 44 nan nan nan nan nan nan nan nan nan nan nan nan nan nan nan nan nan nan nan nan nan
nan nan nan nan nan nan nan nan nan nan nan nan nan nan nan 40 nan nan nan nan nan 41 41 nan nan 38 nan nan nan nan nan nan nan nan nan nan nan nan nan nan nan nan nan
Wind_Direction
243 249 249 244 247 241 239 238 244 237 248 225 225 237 231 224 232 246 229 254 294 20 285 290 306 320 299 270 265 289 291 291 290 323 337 4 325 333 329 343 14 nan 307
258 253 247 240 233 242 252 257 271 263 255 251 243 242 238 240 246 265 242 218 243 251 260 270 281 284 300 282 272 259 267 281 293 282 317 329 314 324 326 337 353 347 311
254 268 263 260 249 233 232 221 251 256 244 244 253 246 244 251 247 259 277 272 259 283 283 282 279 280 276 286 278 276 279 286 288 302 286 285 285 294 299 313 322 314 307
211 225 233 255 244 232 226 240 248 251 245 246 252 245 248 250 254 257 280 284 280 279 286 291 289 290 290 278 279 273 265 278 275 271 274 279 300 296 287 291 295 303 nan
235 222 212 206 231 241 241 238 252 257 250 246 250 255 251 244 243 232 241 269 280 264 261 268 282 284 277 278 280 275 269 270 269 274 283 275 274 271 275 289 290 296 302
237 236 238 nan 181 225 236 238 238 245 248 245 246 251 255 259 242 239 239 244 260 262 262 261 265 288 278 277 281 279 nan 266 272 273 272 275 277 272 268 276 280 273 282
245 248 255 246 218 234 246 250 252 251 249 249 248 249 264 256 244 245 239 256 252 260 268 269 269 274 274 279 277 286 277 nan nan 263 263 261 266 258 259 265 269 275 278
250 245 251 252 223 239 253 261 256 249 252 nan nan 263 263 270 nan nan 240 251 252 255 254 260 262 263 265 271 286 280 267 nan nan 266 266 nan nan nan nan 258 263 264 266
230 235 243 250 239 239 257 250 256 248 nan nan nan nan nan nan nan nan nan nan 247 264 261 255 263 250 247 246 271 275 nan nan nan nan nan nan nan nan nan 262 256 269 267
233 251 236 236 278 236 252 266 260 257 nan nan nan nan nan nan nan nan nan nan nan 253 267 nan nan 257 250 252 258 274 nan nan nan nan nan nan nan nan nan nan nan nan 270
259 278 252 265 279 nan nan nan nan nan nan nan nan nan nan nan nan nan nan nan nan nan 258 262 nan nan 260 255 255 260 268 nan nan nan nan nan nan nan nan nan nan nan nan
252 249 252 nan nan nan nan nan nan nan nan nan nan nan nan nan nan nan nan nan nan nan nan 270 267 nan nan 262 261 262 nan nan nan nan nan nan nan nan nan nan nan nan nan
259 nan nan nan nan nan nan nan nan nan nan nan nan nan nan nan nan nan nan nan nan nan 261 nan nan nan nan nan 256 nan nan nan nan nan nan nan nan nan nan nan nan nan nan
259 257 nan nan nan nan nan nan nan nan nan nan nan nan nan nan nan nan nan nan nan nan nan nan nan nan nan nan nan nan nan nan nan nan nan nan nan nan nan nan nan nan nan
nan nan nan nan nan nan nan nan nan nan nan nan nan nan nan nan nan nan nan nan nan nan nan nan nan nan nan nan nan nan nan nan nan nan nan nan nan nan nan nan nan nan nan
nan nan nan nan nan nan nan nan nan nan nan nan nan nan nan nan nan nan nan nan nan nan nan nan nan nan nan nan nan nan nan nan nan nan nan nan nan nan nan nan nan nan nan
nan nan nan nan nan nan nan nan nan nan nan nan nan nan nan nan nan nan nan nan nan nan nan nan nan nan nan nan nan nan nan nan nan nan nan nan nan nan nan nan nan nan nan
nan nan nan nan nan nan nan nan nan nan nan nan nan nan nan nan nan nan nan nan nan nan nan nan nan nan nan nan nan nan nan nan nan nan nan nan nan nan nan nan nan nan nan
nan nan nan nan nan nan nan nan nan nan nan nan nan nan nan nan nan nan nan nan nan nan nan nan nan nan nan nan nan nan nan nan nan nan nan nan nan nan nan nan nan nan nan
nan nan nan nan nan nan nan nan nan nan nan nan nan nan nan nan nan nan nan nan nan nan nan nan nan nan nan nan nan nan nan nan nan nan nan nan nan nan nan nan nan nan nan
nan nan nan nan nan nan nan nan nan nan nan nan nan nan nan nan nan nan nan nan nan nan nan nan nan nan nan nan nan nan nan nan nan nan nan nan nan nan nan nan nan nan nan
nan nan nan nan nan nan nan nan nan nan nan nan nan nan nan nan nan nan nan nan nan nan nan nan nan nan nan nan nan nan nan nan nan nan nan nan nan nan nan nan nan nan nan
nan nan nan nan nan nan nan nan nan nan nan nan nan nan nan nan nan nan nan nan nan nan nan nan nan nan nan nan nan nan nan nan nan nan nan nan nan nan nan nan nan nan nan
nan nan nan nan nan nan nan nan nan nan nan nan nan nan nan nan nan nan nan nan nan nan nan nan nan nan nan nan nan nan nan nan nan nan nan nan nan nan nan nan nan nan nan
nan nan nan nan nan nan nan nan nan nan nan nan nan nan nan nan nan nan nan 291 290 290 nan nan nan nan nan nan nan nan nan nan nan nan nan nan nan nan nan nan nan nan nan
nan nan nan nan nan nan nan nan nan nan nan nan nan nan nan 291 nan nan nan nan nan 290 290 nan nan 292 nan nan nan nan nan nan nan nan nan nan nan nan nan nan nan nan nan